Theta_e
314 319 320 322 321 317 319 319 316 319 318 318 319 319 328 328 337 335 335 334 332 332 333 332 333 334 335 337 333 327 331 333 333 332 332 332 333 335 336 335 333 332 330 329 328 326 327 327 326
314 319 321 317 320 316 316 316 318 319 317 317 320 321 325 334 333 336 333 335 334 333 333 332 332 333 335 336 333 327 330 331 330 330 330 331 332 335 335 334 331 330 329 328 327 326 327 328 327
319 320 315 321 316 316 316 317 318 318 317 319 321 321 325 333 336 338 338 336 335 333 333 333 331 334 335 335 333 327 328 330 330 328 329 330 332 333 334 333 330 329 327 327 326 326 328 326 325
319 319 313 316 319 316 315 317 317 316 317 317 319 323 325 327 339 339 338 337 338 338 335 334 331 333 334 334 334 327 329 331 330 328 328 330 330 332 332 331 329 327 326 326 325 327 326 324 324
318 314 318 320 319 316 314 317 317 317 315 317 319 322 327 335 338 339 339 339 339 339 338 335 331 333 335 334 334 328 331 332 330 328 328 328 329 330 330 328 326 325 325 325 324 324 323 325 325
316 313 317 319 319 317 315 315 316 315 315 317 316 323 325 335 338 339 339 338 337 338 339 334 331 333 335 335 335 331 331 331 329 327 327 327 328 328 327 325 324 324 324 323 316 322 323 324 325
319 318 320 320 316 317 316 315 315 313 315 317 317 323 326 330 338 338 339 338 336 337 338 332 332 333 334 334 334 333 331 329 327 326 325 325 325 325 323 321 322 322 322 321 315 322 321 319 320
313 314 318 317 316 318 315 317 316 314 316 316 317 319 326 327 336 338 337 337 336 336 336 331 332 334 332 333 333 333 331 329 327 325 322 322 320 319 317 318 320 321 321 312 313 318 319 319 320
314 312 314 317 317 316 314 316 315 314 315 316 317 319 321 329 335 337 337 336 335 335 335 332 332 334 331 333 332 332 333 330 328 325 322 320 319 319 318 316 315 315 311 307 311 317 318 319 320
312 310 315 315 314 315 315 315 314 314 314 316 315 319 325 331 335 335 334 335 337 335 335 335 333 333 331 332 333 333 333 332 329 326 322 320 319 320 318 316 312 310 308 308 312 318 319 318 319
315 314 315 315 315 314 315 315 312 313 313 312 314 320 326 331 333 333 334 334 337 335 335 335 335 334 333 332 331 333 333 333 331 328 323 322 323 323 318 317 314 312 309 310 312 315 317 318 318
315 314 314 315 315 315 315 312 315 312 313 313 312 321 325 326 333 333 334 334 334 336 335 334 334 335 334 333 333 331 332 333 332 330 326 325 325 326 319 317 315 313 310 313 315 315 315 316 316
312 313 313 314 314 314 314 314 314 314 311 311 312 318 324 325 329 334 333 335 334 336 335 335 335 335 334 333 333 333 331 333 332 331 329 328 327 326 321 317 316 314 313 314 314 315 315 314 314
314 314 313 314 314 314 314 313 314 313 311 311 310 313 319 323 325 328 333 331 334 334 335 336 337 337 335 334 334 333 333 333 332 332 331 329 328 327 325 319 316 314 314 314 314 315 314 314 313
314 313 313 313 313 314 313 309 312 310 312 311 309 308 310 316 324 325 328 331 331 334 335 333 336 337 337 336 334 334 334 333 333 334 333 330 331 329 328 323 317 316 315 314 314 314 312 312 311
314 312 312 313 312 314 311 307 309 309 309 311 309 307 307 308 315 323 326 328 330 331 332 334 334 333 334 336 335 332 334 335 334 334 334 334 332 332 329 327 324 316 314 314 314 313 310 310 310
312 310 311 315 312 314 313 310 313 311 310 309 308 308 307 306 309 315 321 325 327 330 331 333 334 335 334 333 333 334 335 334 335 334 335 335 334 333 331 329 327 321 314 314 315 312 310 306 305
313 313 312 312 313 314 314 311 310 310 311 310 309 308 307 307 307 313 315 318 323 326 330 332 333 334 334 333 334 333 333 332 331 331 331 331 333 333 332 330 329 325 317 313 313 313 307 305 301
313 313 312 313 314 314 312 311 310 310 309 308 308 308 308 308 310 313 314 316 319 324 327 331 333 334 334 332 332 332 331 332 332 332 331 330 330 331 333 331 329 327 319 316 313 310 306 300 297
314 314 312 313 313 313 311 311 309 309 311 309 309 307 307 307 308 310 313 314 316 319 326 329 332 333 333 332 331 330 330 330 331 331 331 331 329 329 332 331 329 328 320 314 312 311 302 297 297
314 313 313 313 313 311 312 309 310 311 310 309 308 308 308 308 308 308 309 312 315 318 322 326 329 332 332 331 330 329 329 328 329 329 330 330 329 328 327 328 328 327 322 317 315 311 307 300 296
314 312 312 314 311 310 311 310 310 311 309 308 308 308 308 307 308 307 309 311 312 316 318 322 325 329 331 331 329 328 325 323 323 324 327 328 329 329 328 326 327 326 323 320 316 313 310 304 298
312 313 313 314 314 315 313 310 309 309 310 309 309 309 308 308 308 308 308 313 314 314 316 318 322 326 328 329 327 325 323 321 320 320 320 321 324 327 327 325 324 325 323 320 319 311 307 307 304
312 314 313 313 312 311 312 309 307 307 309 311 311 312 313 312 311 311 312 313 314 314 314 316 318 321 322 323 324 322 321 319 317 317 316 316 317 318 318 323 322 323 322 319 318 316 313 310 305
313 309 309 312 314 311 309 310 309 309 310 312 312 310 313 312 311 311 312 311 312 314 313 313 314 316 317 316 317 318 317 317 316 316 315 315 315 314 313 314 318 320 320 318 317 316 313 310 306
313 309 309 312 316 312 309 312 312 309 308 313 312 311 309 309 308 308 308 310 311 311 312 313 313 313 313 314 315 315 315 315 316 316 315 315 314 314 313 311 313 315 317 316 317 315 314 311 307
312 314 311 312 300 309 309 309 308 310 310 309 308 310 310 311 310 309 309 310 311 311 311 311 311 312 312 312 313 313 314 314 315 315 315 315 314 314 314 314 311 313 313 315 315 313 313 311 307
311 311 313 311 309 310 309 308 310 310 310 309 312 312 311 310 308 306 307 309 310 310 310 310 310 310 310 311 311 311 312 312 313 313 314 314 313 313 314 314 312 310 311 313 313 311 312 309 308
311 312 312 311 311 312 311 309 306 308 311 311 312 312 312 310 309 308 307 309 310 310 310 310 310 310 310 310 310 310 311 311 311 312 312 313 313 313 313 313 312 312 310 310 310 310 310 310 308
309 310 311 312 312 309 311 312 310 311 312 311 311 312 311 310 308 307 308 309 308 309 310 310 310 310 310 310 310 310 310 310 310 310 311 312 311 312 312 312 312 312 311 309 309 308 308 308 306
Wind_Speed
9 8 9 4 4 5 1 2 5 5 4 2 3 7 8 2 2 2 12 15 23 23 19 16 13 12 11 13 12 13 15 14 13 14 16 15 16 17 19 20 21 20 19 18 19 20 22 23 24
7 7 2 2 4 4 3 3 6 4 5 6 5 4 3 2 3 7 18 23 23 23 20 17 14 13 12 12 11 13 15 15 14 14 16 17 16 16 18 19 19 19 18 18 19 20 21 22 26
5 4 3 4 3 3 3 5 8 4 5 4 3 4 4 3 5 13 18 29 23 22 18 16 15 15 14 14 12 13 13 15 15 15 16 16 16 16 17 18 20 18 17 18 19 19 20 20 22
4 6 4 4 2 4 5 8 8 6 5 4 5 7 4 2 21 13 27 25 21 20 18 17 17 17 17 15 13 12 13 14 14 14 16 16 16 15 17 17 18 18 18 18 18 18 19 20 21
1 3 3 3 1 3 5 7 8 6 7 3 3 5 4 6 18 27 28 26 23 20 17 18 18 18 19 17 14 13 14 14 14 14 15 15 16 15 15 16 18 17 18 18 18 20 20 22 23
4 3 4 3 3 4 3 6 8 6 6 4 5 6 5 17 24 26 27 24 20 21 21 19 19 19 19 17 16 14 14 13 14 14 15 15 16 15 16 17 18 17 18 17 19 21 20 22 23
5 4 3 1 4 3 4 4 6 7 8 4 5 4 2 8 22 24 23 24 21 20 21 21 21 18 18 18 16 15 14 14 13 13 15 15 16 16 16 16 17 18 18 18 21 21 21 22 21
4 4 4 3 0 2 2 2 1 6 2 2 3 5 5 11 22 23 21 18 20 20 16 21 21 19 19 18 17 16 15 14 13 13 14 16 16 15 15 17 17 17 17 18 20 20 20 20 19
3 4 3 3 2 4 4 3 3 1 6 2 2 6 5 28 26 22 23 19 21 19 19 20 21 20 20 20 18 17 16 15 14 14 14 16 17 16 16 15 16 16 16 17 20 21 19 17 15
4 4 3 1 2 3 5 4 5 3 4 2 4 4 25 30 29 24 22 22 26 23 21 21 21 21 21 21 21 19 19 18 16 16 17 18 18 16 16 16 15 15 16 19 21 21 19 16 17
4 5 3 2 2 3 2 2 5 5 2 6 9 9 15 24 24 25 23 26 29 28 27 24 23 22 23 23 22 21 21 21 19 19 19 19 18 16 17 17 17 18 19 21 20 18 17 16 14
2 2 4 1 3 3 2 6 1 6 6 1 8 17 15 11 18 24 26 23 25 31 30 28 26 26 26 23 25 24 23 24 24 23 21 22 19 18 20 20 19 19 23 22 18 15 13 15 15
3 0 5 5 3 1 2 1 4 5 8 2 8 12 15 14 20 28 33 27 23 25 28 28 29 30 29 27 26 26 26 27 27 25 24 25 25 23 22 22 21 21 23 19 18 16 15 17 17
1 2 4 4 3 2 1 3 2 7 7 6 9 13 11 13 24 23 28 32 31 32 33 32 29 31 32 30 29 28 29 27 27 29 29 30 29 26 25 25 25 23 23 20 17 18 18 18 20
2 2 1 4 5 1 3 5 8 10 3 7 10 9 10 14 24 28 35 35 36 37 36 34 38 33 33 31 30 28 30 29 30 30 30 32 31 30 28 27 28 27 24 22 19 19 19 20 20
2 3 1 2 7 2 4 8 8 9 8 10 8 8 9 11 22 33 35 37 37 37 38 37 38 40 39 36 33 32 32 31 30 29 29 32 33 33 32 30 29 30 27 26 24 24 23 21 22
3 2 4 2 5 3 3 5 4 7 2 8 9 9 9 10 15 32 36 38 38 39 39 40 41 42 42 39 35 36 35 36 31 28 27 29 34 35 36 34 32 30 30 30 29 27 26 26 23
4 3 3 4 4 3 2 8 10 10 7 11 11 10 10 10 13 31 37 38 38 38 38 41 41 43 40 40 35 31 32 34 36 36 36 31 30 35 35 38 36 34 35 35 32 30 28 27 26
4 3 0 2 2 3 6 8 12 11 8 10 11 11 10 12 15 22 32 38 36 37 37 39 41 41 40 40 43 35 37 35 34 33 33 35 35 34 36 36 37 37 40 40 37 34 32 28 27
2 2 3 1 1 2 4 12 10 11 13 11 13 10 11 8 9 16 22 34 39 39 41 39 41 41 41 41 41 35 34 39 39 38 35 33 34 34 36 37 38 39 40 41 41 38 32 24 35
2 4 3 2 3 2 2 9 6 6 5 7 9 11 9 12 11 10 15 28 39 40 42 43 43 42 41 40 37 35 31 34 36 39 40 40 38 35 38 39 40 40 42 45 45 45 42 30 37
2 1 5 3 4 3 4 6 5 7 11 7 9 10 10 9 8 8 10 17 32 42 43 42 42 42 42 42 40 40 32 30 35 34 42 41 41 38 35 39 39 40 44 44 47 48 47 37 34
5 0 4 3 2 2 2 1 7 5 6 10 10 6 5 6 8 9 8 10 23 35 38 38 37 37 40 42 41 39 36 34 32 33 35 39 40 42 36 40 40 41 43 45 48 47 44 46 37
7 5 6 5 3 3 8 8 5 4 6 2 3 3 3 4 5 5 5 4 4 20 27 30 32 34 34 35 38 38 38 37 34 31 32 33 34 37 39 40 41 41 44 45 48 48 49 48 40
4 6 1 3 2 6 3 2 6 8 9 3 5 4 1 2 1 2 2 2 3 8 17 22 24 28 30 31 34 37 38 38 38 37 34 32 33 36 39 42 45 44 44 45 46 46 48 48 46
7 7 5 7 4 5 3 6 5 10 8 2 4 4 3 5 4 6 6 8 5 5 6 11 16 21 24 28 32 33 37 36 35 36 36 36 37 38 36 35 36 39 44 43 46 46 48 47 47
5 5 5 4 2 3 5 6 8 7 9 9 7 6 6 4 5 6 7 1 5 5 7 10 13 17 20 23 27 31 34 36 39 36 34 36 36 37 35 34 32 36 44 46 46 44 45 44 45
6 5 3 2 1 4 4 5 6 7 12 9 6 6 6 6 8 7 6 5 2 1 3 7 12 15 16 21 24 29 32 35 37 36 38 38 36 34 34 33 32 33 39 44 45 42 44 42 43
2 3 3 4 5 5 2 6 6 7 4 8 7 5 6 7 4 2 0 2 3 4 5 8 12 14 17 18 21 26 30 33 34 36 37 37 34 33 33 33 33 33 35 41 42 41 43 43 42
3 7 6 4 3 4 4 13 3 8 6 7 7 5 2 4 5 5 3 2 7 8 8 12 14 16 19 19 20 24 28 31 33 34 35 33 34 34 34 33 34 34 34 35 40 41 42 43 40
Wind_Direction
316 331 332 6 51 71 236 43 128 92 52 82 79 79 128 98 68 174 157 138 154 154 156 155 150 135 125 116 104 99 108 108 101 101 97 94 95 95 96 97 94 90 90 90 89 89 97 94 84
327 10 51 67 82 82 305 106 84 108 132 100 68 68 58 99 89 119 141 168 157 158 157 158 151 136 136 130 118 113 113 109 107 104 101 99 98 98 100 98 97 94 94 92 91 94 98 90 86
342 345 74 104 108 121 159 140 140 119 118 122 89 64 99 103 95 142 151 161 154 162 163 159 151 148 147 143 137 128 121 114 112 107 105 104 105 106 107 100 100 98 96 95 94 96 96 93 97
355 20 14 82 145 335 101 154 135 110 32 45 109 81 57 285 148 149 151 152 154 156 166 162 160 158 155 157 148 138 129 120 115 113 111 110 111 116 110 105 103 104 101 99 99 101 98 93 97
35 69 25 37 15 132 96 164 141 129 146 153 108 157 94 60 151 146 149 155 154 159 163 166 165 161 163 162 154 146 136 129 123 121 118 118 120 121 118 114 110 108 107 105 103 111 101 96 103
22 85 40 355 145 139 78 146 133 123 133 149 97 112 174 139 143 153 156 154 161 167 167 168 167 164 167 166 159 150 148 137 132 129 126 125 125 125 122 118 115 114 110 108 114 115 103 103 108
115 82 226 292 242 123 164 138 137 143 135 178 153 84 117 155 151 159 160 165 166 170 167 172 171 168 170 171 166 159 159 147 141 135 134 133 132 132 126 123 120 117 115 114 120 119 114 110 112
106 96 350 303 143 120 187 82 77 119 167 153 103 149 183 194 162 165 170 168 173 172 183 175 174 173 175 176 176 171 164 155 153 148 143 141 139 137 131 129 126 123 121 124 128 127 124 119 114
68 68 292 293 318 139 176 110 353 124 115 86 96 136 186 162 166 166 178 166 181 188 185 182 181 181 179 181 178 179 173 166 164 158 153 148 142 143 138 135 133 131 130 128 130 129 128 128 122
91 119 229 303 11 133 174 136 183 119 120 110 74 55 146 155 165 178 187 171 176 185 184 190 188 189 186 185 185 184 180 179 177 172 165 155 153 151 151 145 141 139 133 131 131 129 127 125 122
170 177 202 355 65 46 141 141 192 130 211 207 188 161 150 156 171 182 191 194 180 186 183 195 193 194 192 193 194 190 188 188 187 186 174 166 168 166 167 159 155 149 143 137 137 141 140 123 131
156 213 106 135 36 37 73 307 334 173 216 62 187 164 162 164 176 188 197 194 182 184 187 192 200 200 200 204 197 199 198 196 195 192 183 180 186 182 181 173 166 161 153 152 158 160 162 150 135
132 221 79 122 85 71 28 308 252 265 257 202 118 155 176 182 185 195 203 202 201 190 188 191 201 201 204 208 209 205 204 204 204 199 200 195 197 191 192 184 176 170 167 172 170 174 174 162 153
168 108 154 147 182 163 129 267 66 265 243 204 157 185 187 187 195 190 201 209 210 215 211 199 196 200 205 208 210 211 207 210 212 208 202 204 205 203 199 195 188 184 184 187 186 182 179 171 168
84 38 310 194 187 170 128 309 231 235 286 208 219 197 197 206 201 200 205 206 209 213 216 215 210 205 200 204 212 215 211 213 218 215 213 208 214 211 209 207 200 195 194 197 191 184 180 173 171
116 57 30 294 138 220 105 271 282 293 188 227 230 224 227 219 208 212 212 214 216 214 216 216 213 214 213 213 215 220 217 213 217 222 218 215 217 217 212 216 212 204 196 198 194 188 182 182 179
351 200 205 272 198 128 138 270 270 5 136 252 251 251 234 239 238 218 216 216 216 218 216 215 215 214 212 213 218 221 221 219 215 215 215 217 218 220 221 219 219 212 203 202 200 194 191 181 178
195 211 272 204 232 120 208 258 279 283 267 251 249 244 239 239 236 228 222 217 217 216 217 216 215 217 215 215 212 218 220 223 226 227 228 226 224 223 222 221 221 216 207 204 203 199 193 189 178
135 132 134 164 213 155 226 262 268 276 273 255 250 246 244 239 240 237 227 217 213 215 211 214 210 214 213 211 211 214 215 216 220 221 225 228 226 229 223 226 225 217 213 210 207 196 191 181 179
170 132 282 63 138 159 279 277 258 258 255 236 246 243 240 247 254 246 226 219 213 211 212 211 214 213 215 214 217 215 218 222 224 225 223 221 222 229 228 226 225 220 216 211 207 201 182 181 187
165 168 218 212 327 323 19 293 302 285 246 255 254 245 244 230 236 241 234 220 216 212 210 213 214 216 214 217 215 215 220 228 227 226 226 225 225 229 233 234 230 225 220 216 214 208 198 183 195
203 254 225 136 71 241 73 286 277 270 283 297 271 259 255 252 251 239 229 217 217 215 216 215 216 217 216 217 216 215 214 217 226 228 228 227 224 229 230 235 233 229 225 220 219 215 208 195 192
203 21 130 113 141 27 309 157 271 290 285 271 272 280 269 255 245 256 246 232 222 219 219 218 217 216 219 219 221 220 218 224 229 234 236 235 231 230 232 236 236 230 224 224 225 214 207 207 203
151 74 41 42 79 283 204 188 280 215 221 255 350 80 113 90 79 60 73 90 214 221 223 220 219 220 223 222 223 225 226 226 230 231 232 234 235 235 237 235 239 235 230 226 226 224 220 214 211
97 90 335 342 353 235 340 218 243 278 250 239 235 238 146 138 71 309 296 286 198 205 213 217 220 224 224 224 226 228 233 235 237 240 239 235 238 239 239 237 236 238 234 228 226 225 224 222 216
195 163 160 197 204 270 328 244 263 251 293 188 32 99 42 333 285 291 289 265 238 196 211 215 222 228 228 228 230 231 234 237 240 243 245 246 247 249 250 248 240 232 234 230 230 228 226 226 224
207 209 189 87 23 43 234 293 311 316 309 330 339 19 74 47 358 340 346 113 154 180 206 218 226 231 230 231 234 235 237 238 241 244 245 248 252 251 251 251 247 234 236 235 231 227 229 230 227
138 169 69 2 162 268 274 275 222 303 286 269 81 59 25 21 16 16 57 92 109 250 255 241 238 237 235 234 237 240 241 241 244 246 246 247 250 250 250 248 248 245 235 237 235 228 231 229 230
126 179 176 150 156 185 276 263 225 226 199 112 112 90 54 49 30 339 179 149 171 194 213 229 234 239 241 238 240 243 245 244 245 245 247 247 250 250 247 248 246 244 241 236 234 230 233 233 232
163 188 158 147 235 228 182 255 104 122 126 123 103 70 161 164 194 210 192 190 212 218 227 240 241 249 251 250 250 254 256 250 246 247 249 249 248 247 246 247 244 241 243 240 237 232 232 233 230